Location: Eaton
(41.3139°N, 82.0207°W)
Time: 01:28:14
(UTC+00:00)

USA 290 - Pass Details

Date: 17 June 2021
Orbit: 401 x 412 km, 73.6° (Epoch: 01 August)

Event Time Altitude Azimuth Distance (km) Brightness Sun altitude
Exits shadow 08:15:40 28° 249° (WSW) 789 3.1 -14.7°
Maximum altitude 08:16:44 38° 293° (WNW) 637 3.0 -14.5°
Drops below altitude 10° 08:19:46 10° 4° (N) 1,470 5.8 -14.2°
Sets 08:21:54 0° 13° (NNE) 2,333 7.2 -13.9°
